Orbital Elements at Epoch 2453472.5 (2005-Apr-12.0) TDB
Reference: JPL 5 (heliocentric ecliptic J2000)
Element | Value | Uncertainty (1-sigma) | Units |
e | .1240845702960842 | 220.52 | |
a | 39.71236805426242 | 9171.1 | au |
q | 34.78467592880933 | 776.74 | au |
i | 19.5427552478314 | 2423.2 | deg |
node | 155.5012636351756 | 3186.2 | deg |
peri | 23.91699889410889 | 2.0399e+06 | deg |
M | 359.988906145821 | 1.5754e+06 | deg |
tp | 2453475.316871634270 (2005-Apr-14.81687163) | 4.0002e+08 | TDB |
period | 91408.60984654237 250.26 | 3.1664e+07 8.669e+04 | d yr |
n | .003938359861334412 | 1.3643 | deg/d |
Q | 44.64006017971551 | 10309 | au |
|
| | Orbit Determination Parameters
Additional Information
|